Home > Weather > Foochow > Past weeks

Flag for China Past Weather in Foochow, Fujian, China — Yesterday and Last 2 Weeks

Now
81 °F

Passing clouds.


Feels Like: 88 °F
Forecast: 73 / 94 °F
Wind: No wind

Location: Fuzhou Airport

Current Time: Jul 30, 2016 at 1:56:21 AM

Latest Report: Jul 30, 2016 at 1:00 AM


Visibility: 5 mi

Pressure: 29.74 "Hg

Humidity: 94%

Dew Point: 79 °F

Location of FoochowLocation

Past Weather in Foochow — Graph

°F

Foochow Temperature Yesterday

Maximum temperature yesterday: 93 °F (at 12:00 PM)
Minimum temperature yesterday: 81 °F (at 1:00 AM)
Average temperature yesterday: 87 °F

High & Low Weather Summary for the Past Weeks

 TemperatureHumidityPressure
High95 °F (Jul 28, 3:00 PM)100% (Jul 17, 3:00 PM)29.86 "Hg (Jul 17, 3:00 PM)
Low77 °F (Jul 17, 3:00 PM)52% (Jul 25, 1:00 PM)29.62 "Hg (Jul 15, 3:00 PM)
Average84 °F80%29.75 "Hg
* Reported Jul 15 12:00 AM — Jul 30 12:00 AM, Foochow, Weather by CustomWeather, © 2016

Note: Actual official high and low records may vary slightly from our data, if they occured in-between our weather recording intervals... More about our weather records

Advertising

Foochow Weather History for the Previous 24 Hours

Scroll right to see more
 ConditionsComfort  
Time TempWeatherWind HumidityBarometerVisibility
12:00 AM
Sat, Jul 30
82 °FPassing clouds.1 mph94%29.77 "HgN/A
11:00 PM
Fri, Jul 29
82 °FPassing clouds.3 mph94%29.77 "HgN/A
10:00 PM84 °FPassing clouds.6 mph89%29.77 "HgN/A
9:00 PM86 °FPassing clouds.6 mph75%29.77 "HgN/A
8:00 PM86 °FPassing clouds.3 mph75%29.77 "HgN/A
7:00 PM86 °FPassing clouds.6 mph75%29.74 "HgN/A
6:00 PM90 °FPassing clouds.3 mph63%29.74 "HgN/A
5:00 PM91 °FPassing clouds.3 mph63%29.71 "HgN/A
4:00 PM93 °FPassing clouds.6 mph59%29.71 "HgN/A
3:00 PM93 °FPassing clouds.6 mph59%29.71 "HgN/A
2:00 PM93 °FPassing clouds.8 mph59%29.74 "HgN/A
1:00 PM93 °FPassing clouds.8 mph56%29.74 "HgN/A
12:00 PM93 °FPassing clouds.8 mph56%29.77 "HgN/A
11:00 AM91 °FClear.8 mph56%29.77 "Hg6 mi
10:00 AM90 °FClear.6 mph59%29.77 "Hg6 mi
9:00 AM88 °FClear.6 mph66%29.77 "Hg6 mi
8:00 AM86 °FClear.3 mph70%29.77 "Hg6 mi
7:00 AM84 °FClear.3 mph74%29.77 "Hg5 mi
6:00 AM81 °FClear.3 mph79%29.74 "Hg5 mi
5:00 AM81 °FClear.3 mph79%29.74 "Hg10 mi
4:00 AM81 °FClear.1 mph79%29.74 "Hg10 mi
3:00 AM82 °FClear.6 mph74%29.74 "Hg10 mi
2:00 AM82 °FClear.1 mph74%29.74 "Hg10 mi
1:00 AM81 °FClear.1 mph79%29.74 "Hg10 mi
Weather by CustomWeather, © 2016

See weather overviewHow to use our weather pages